Dewpoint
7 11 13 12 13 13 11 12 13 12 13 13 12 8 9 9 10 7 2 6 9 8 8 10 10 13 13 13 13 13 13 12 11 12 13 13 13 13 13 13 13 13 13
9 13 12 13 12 13 13 12 13 13 12 13 12 9 10 10 11 7 2 9 9 10 8 12 13 13 14 13 12 12 11 11 11 12 12 12 12 11 11 12 12 12 11
7 11 13 14 14 13 13 13 13 13 12 12 11 10 10 10 11 8 3 10 9 9 9 9 13 13 13 12 12 10 10 9 10 10 11 11 10 9 7 5 5 5 5
7 11 15 15 15 14 13 13 13 14 13 12 12 11 11 11 11 9 4 7 10 11 10 6 12 12 12 12 11 10 8 7 8 8 9 9 8 5 1 -1 -1 -1 1
5 9 13 14 15 15 14 13 13 14 13 13 12 11 12 11 11 9 3 6 10 9 10 6 9 9 11 12 11 9 6 3 2 5 5 3 1 2 -2 -5 -4 -5 -4
0 7 11 14 14 15 15 14 13 13 13 13 12 11 11 11 11 9 1 5 10 8 6 6 9 7 9 10 10 9 7 4 -0 2 2 1 -3 0 -0 -2 2 -1 -1
-1 0 4 11 14 14 15 15 13 13 13 13 12 12 11 10 11 8 1 9 9 4 -4 2 5 3 5 7 8 8 4 -1 -1 -1 -1 1 6 5 4 -1 4 9 9
-2 -3 -1 3 12 14 14 15 15 13 13 13 12 11 11 10 10 5 6 11 9 5 -7 -3 -2 -1 2 4 4 1 -3 -4 -2 -2 -2 4 9 9 4 5 2 1 8
-9 -5 -5 -1 7 11 12 14 15 14 13 13 12 11 11 10 8 2 11 11 10 6 -4 -6 -6 -7 -9 -6 -6 -8 -8 -6 -6 -5 -3 8 10 8 10 9 8 3 2
-13 -12 -9 -5 1 8 10 12 13 15 14 13 12 11 11 10 8 4 12 12 10 7 1 -7 -7 -9 -10 -11 -10 -11 -10 -8 -6 -3 3 7 9 9 9 9 8 6 1
-16 -14 -13 -9 -3 4 6 11 10 14 14 14 12 12 11 10 7 11 13 12 11 9 -2 -7 -7 -9 -11 -11 -11 -11 -10 -5 -2 1 6 10 6 1 2 7 3 3 -2
-11 -12 -13 -11 -8 -1 5 8 11 12 14 14 13 11 11 10 9 13 14 13 12 10 -2 -9 -7 -8 -10 -10 -7 -7 -5 -4 -2 1 7 8 6 2 -8 -9 -7 -6 -3
-10 -10 -11 -11 -9 -5 0 4 9 10 11 14 14 12 10 10 10 13 14 14 13 11 2 -6 -1 -9 -10 -7 -6 -4 -4 -3 -2 2 8 5 4 3 -4 -8 -11 -12 -14
-9 -9 -9 -10 -10 -9 -5 -1 4 9 9 11 13 13 11 11 12 14 14 14 13 12 7 -4 -9 -6 -6 -4 -2 -2 -2 -1 -1 2 8 7 3 -0 -3 -10 -12 -12 -14
-8 -9 -8 -10 -11 -11 -10 -4 2 7 7 9 10 13 12 12 13 14 13 13 13 12 9 -1 -6 -4 -5 -3 -0 0 -1 -0 0 2 5 6 2 -4 -6 -9 -11 -13 -13
-10 -7 -6 -7 -8 -11 -7 -10 -2 3 6 8 9 12 11 11 13 14 14 13 13 13 10 3 -6 -7 -5 -2 -1 1 -0 0 0 -0 3 4 0 -3 -5 -8 -10 -13 -12
-10 -9 -7 -6 -4 -9 -8 -7 -6 -0 5 5 8 9 9 13 13 13 13 13 13 13 11 5 -1 -3 -4 -2 -0 0 0 1 1 1 -0 2 1 -2 -1 -7 -10 -12 -11
-9 -10 -9 -6 -4 -5 -11 -7 -7 -3 1 2 5 8 9 10 12 13 14 13 13 12 12 8 0 -0 0 -0 -1 1 2 2 1 2 1 1 1 -2 0 -6 -11 -12 -11
-10 -10 -10 -9 -7 -6 -5 -3 -7 -3 1 3 4 6 9 9 11 13 13 13 13 12 12 9 3 1 1 3 3 3 3 3 2 2 0 -4 -4 -4 -4 -9 -11 -12 -11
-11 -11 -10 -10 -9 -8 -6 -3 -12 -9 -4 2 1 4 6 10 9 13 13 12 13 12 12 11 4 4 3 4 5 5 5 4 3 2 1 -2 -5 -6 -6 -10 -11 -11 -11
-11 -11 -11 -11 -11 -10 -8 -6 -6 -7 -8 -2 1 3 3 8 9 10 13 12 13 12 12 11 7 3 6 6 5 6 6 6 4 4 2 0 -2 -4 -5 -8 -9 -10 -11
-13 -13 -12 -11 -11 -10 -10 -7 -2 -1 -6 -6 -1 -0 2 5 9 10 12 12 13 12 12 11 8 4 6 6 6 6 7 6 6 5 3 2 -1 -3 -5 -7 -9 -9 -10
-14 -14 -13 -12 -11 -10 -10 -9 -7 -1 -1 -4 -2 0 1 3 7 10 11 13 13 11 11 11 9 4 2 6 5 2 5 5 6 6 4 2 -1 -4 -5 -8 -9 -10 -10
-15 -14 -13 -13 -12 -10 -9 -8 -7 -4 -3 -4 -1 -1 -1 1 6 10 11 12 12 12 11 11 11 7 1 3 6 3 -2 -4 4 4 3 1 -1 -3 -6 -8 -11 -12 -11
-15 -14 -13 -12 -12 -10 -8 -7 -6 -5 -3 -3 -1 -1 -0 1 5 9 10 10 12 12 11 12 11 8 3 1 -0 1 -1 -4 -6 -5 -1 -0 -2 -6 -8 -9 -11 -13 -13
-15 -15 -14 -13 -12 -11 -9 -7 -6 -4 -4 -1 -1 -0 2 2 5 7 9 10 10 11 12 12 12 10 5 2 1 0 -3 -6 -8 -8 -7 -6 -6 -8 -9 -10 -12 -14 -14
Wind_Speed
18 9 11 15 21 23 24 23 23 22 20 21 20 21 21 18 17 16 15 14 16 15 17 17 17 20 21 20 20 21 21 21 20 21 21 19 19 20 19 19 20 23 22
22 15 15 13 22 25 28 26 25 24 22 21 21 22 21 20 18 17 15 16 16 18 16 18 21 21 20 21 19 21 20 19 17 18 17 15 15 14 15 16 17 16 15
20 13 9 11 20 25 30 29 28 27 25 24 23 23 22 21 19 17 16 17 18 18 18 17 19 19 20 20 20 18 17 14 13 11 11 12 10 7 8 8 10 12 11
24 15 10 13 19 25 28 31 30 29 27 26 25 24 22 21 20 19 18 18 19 18 18 18 17 17 18 18 17 16 13 11 10 8 6 7 8 6 4 4 7 8 9
22 17 11 13 19 23 29 32 32 31 30 29 27 25 24 22 22 21 19 19 20 19 18 16 18 17 18 17 15 14 10 8 8 8 6 5 5 7 6 6 7 9 9
25 18 15 10 18 27 28 30 34 33 32 31 29 28 26 24 24 23 22 20 19 18 18 18 18 17 18 16 15 12 11 9 6 8 7 7 6 10 9 9 12 13 12
28 26 24 17 14 26 24 31 34 35 34 33 32 30 27 26 26 25 24 22 18 15 17 19 18 17 16 15 14 12 10 10 10 8 9 11 12 13 12 12 14 17 17
34 32 29 28 14 19 18 27 33 38 36 35 33 31 29 28 28 28 25 23 20 15 14 18 18 18 16 16 15 13 12 11 11 11 12 14 16 16 15 15 13 13 17
37 35 33 30 25 10 11 22 28 38 40 38 35 32 30 30 30 29 28 25 22 17 15 17 17 16 15 16 15 14 13 13 12 14 15 18 15 16 16 16 15 15 14
39 37 35 33 32 21 9 12 15 36 40 39 37 34 32 32 32 31 30 27 23 18 16 17 17 16 15 16 16 14 14 14 13 14 17 17 17 16 15 16 16 16 14
34 34 33 34 34 28 24 12 9 30 38 39 36 34 33 34 34 33 33 29 25 20 17 18 18 17 16 17 15 16 15 15 15 15 18 17 16 15 15 16 15 14 14
30 30 29 30 33 34 27 20 14 11 27 37 37 36 36 37 37 37 34 30 27 22 19 18 18 19 18 18 18 16 16 16 15 16 19 16 16 14 13 13 13 13 14
28 26 26 28 32 36 36 22 21 9 10 34 38 37 39 40 40 39 37 34 31 26 23 21 21 19 18 18 18 18 17 16 16 17 18 17 16 14 14 13 13 11 10
23 24 25 25 29 31 37 33 29 15 9 10 25 41 44 43 45 43 42 40 37 32 27 25 21 20 19 18 17 18 18 17 18 18 18 17 16 14 13 12 12 13 12
22 20 22 24 26 30 35 40 31 25 20 10 4 25 47 46 48 47 45 44 41 35 29 26 23 23 22 20 18 17 19 19 18 18 19 18 16 14 12 12 12 11 12
21 20 20 21 19 25 28 35 39 35 25 21 11 12 8 50 50 50 50 48 45 37 32 27 26 26 25 23 20 19 19 19 17 17 18 18 16 13 12 11 11 11 11
21 24 23 20 20 21 25 26 33 38 32 33 23 15 5 36 54 54 53 52 47 40 35 30 29 28 28 26 23 23 20 19 18 16 17 17 16 15 13 11 11 10 10
20 23 22 22 20 22 24 27 32 40 37 38 31 28 21 6 43 58 57 55 50 44 38 34 33 33 31 30 28 26 23 21 19 18 17 17 17 16 14 12 11 10 9
19 20 22 20 24 20 20 22 18 23 31 31 38 34 25 15 21 63 61 59 53 49 43 39 37 36 36 32 30 28 25 23 21 20 19 17 17 17 16 15 13 11 10
19 19 21 21 24 23 23 24 25 28 29 32 38 34 35 24 13 56 64 63 58 53 47 42 40 40 37 36 33 29 27 25 23 22 20 17 16 16 16 14 14 12 11
21 20 21 22 21 24 23 25 23 25 29 27 28 31 33 28 26 14 70 67 62 56 52 47 45 44 43 38 36 31 27 26 25 25 23 21 19 18 17 16 15 14 13
22 22 21 23 23 22 23 22 23 26 27 33 31 32 31 30 22 22 56 68 65 57 54 51 50 49 45 44 41 36 23 24 27 28 27 25 23 22 20 19 18 17 15
24 25 23 21 22 23 24 24 23 26 27 27 29 30 33 32 26 27 36 72 66 62 59 56 54 54 54 51 46 30 17 15 32 31 31 29 28 26 24 22 20 19 18
27 26 25 23 21 22 24 24 24 26 27 25 26 31 32 32 31 23 23 66 65 64 63 60 56 55 56 56 52 45 30 18 20 22 36 35 32 31 28 26 24 22 20
26 28 27 24 22 22 23 23 25 26 24 26 25 27 30 29 31 15 20 50 72 68 66 63 60 59 58 56 54 53 38 27 19 19 25 40 37 35 31 29 26 25 23
24 26 27 26 23 22 23 22 22 24 25 25 26 23 25 25 31 26 25 39 53 68 65 67 63 61 61 58 55 52 51 42 34 25 21 31 39 35 35 32 31 28 25
Wind_Direction
348 322 273 230 230 218 209 202 193 188 188 184 180 177 173 172 166 155 147 142 136 127 124 127 132 129 126 124 124 126 119 117 115 114 114 110 108 101 105 107 102 100 100
341 322 294 226 231 224 213 207 201 196 192 190 186 181 178 174 172 162 155 147 145 139 142 135 136 134 134 135 135 123 119 118 120 118 120 118 116 118 115 104 99 97 101
340 341 303 223 239 228 219 213 207 201 197 191 189 186 183 178 175 169 162 156 156 155 155 156 147 146 143 139 133 127 123 123 121 122 124 125 119 108 102 102 105 105 101
348 331 316 249 227 232 227 217 212 205 200 196 194 191 188 184 180 176 172 168 167 167 167 178 170 162 154 147 140 136 135 135 137 137 140 137 126 132 129 122 112 112 112
349 337 306 271 225 226 229 222 216 211 204 201 199 197 195 190 187 183 183 179 178 181 180 177 184 181 166 157 154 146 148 149 152 156 162 173 159 137 141 122 112 111 105
346 334 329 288 236 225 223 225 219 215 208 205 204 199 197 195 192 188 189 188 189 192 198 184 185 186 175 172 167 167 165 165 173 170 163 156 147 120 113 112 102 99 95
329 338 332 312 244 234 213 226 223 217 212 208 206 203 199 197 195 194 192 191 190 189 192 184 184 183 181 180 178 182 179 171 160 163 161 135 115 109 106 108 101 97 95
318 323 326 324 288 237 237 208 223 221 215 210 207 207 202 200 198 198 194 192 185 189 191 184 181 179 184 184 183 186 178 168 162 154 146 125 114 113 110 105 106 105 99
315 313 316 321 306 278 265 211 207 223 218 214 211 209 207 203 200 199 197 195 189 190 192 187 184 181 184 185 184 180 172 161 162 153 140 120 122 111 113 111 106 106 107
312 314 313 313 311 299 302 232 217 199 218 216 214 211 209 204 202 199 199 200 195 194 199 189 189 186 183 181 179 174 164 155 153 150 132 124 124 120 116 113 111 108 104
317 317 317 314 311 301 310 286 296 192 200 219 215 212 209 204 203 201 200 201 201 198 201 196 188 188 184 179 174 166 156 155 153 144 132 132 130 129 123 120 117 112 110
330 321 319 316 317 304 307 302 291 191 197 207 216 212 207 205 203 202 202 204 205 201 201 196 193 185 184 176 168 162 160 158 157 151 140 142 134 132 128 126 123 121 117
326 320 319 315 317 308 299 306 291 256 219 194 214 215 209 205 203 204 202 204 205 202 200 191 192 188 182 179 172 167 166 165 163 154 144 146 142 137 135 132 124 119 113
325 322 320 314 317 319 305 298 298 275 287 139 176 212 211 206 203 204 203 203 205 203 202 199 194 187 183 182 178 172 171 170 167 158 151 151 148 147 140 134 132 129 121
318 323 320 319 320 315 317 296 295 286 298 275 207 188 213 207 206 206 205 207 205 204 204 204 194 189 186 183 180 180 175 173 172 163 161 158 157 156 145 138 135 130 120
310 322 327 325 326 316 319 310 295 286 290 290 270 167 184 214 209 206 207 211 211 206 206 204 199 193 188 186 182 183 182 180 181 176 167 164 162 158 154 149 142 137 130
309 317 320 323 323 321 321 322 305 293 287 293 277 281 359 201 213 211 210 211 212 208 207 203 199 194 191 186 186 184 186 186 188 185 179 170 168 165 163 159 153 147 141
311 308 319 320 325 320 320 320 310 301 296 289 285 275 271 285 211 211 213 214 211 213 207 203 201 195 192 190 186 186 187 190 191 191 194 180 177 174 171 173 165 159 151
324 315 313 316 310 320 315 305 311 305 302 296 285 285 276 303 207 211 214 215 212 212 209 204 200 200 192 191 189 187 188 193 196 198 202 198 188 184 183 180 175 173 167
320 319 316 315 308 314 303 305 312 303 293 292 288 284 284 265 3 209 217 217 210 210 209 205 202 197 196 192 188 189 190 193 198 204 205 205 201 195 192 189 183 183 181
319 314 309 308 309 308 304 303 306 295 291 284 289 283 284 270 250 328 213 217 210 210 210 207 200 199 193 194 188 187 191 196 201 206 207 207 207 202 198 195 192 193 194
328 324 316 312 308 304 300 304 304 299 291 290 285 285 284 275 274 283 209 215 210 210 212 207 202 195 197 195 192 181 178 199 208 210 211 211 210 209 206 203 201 201 202
333 327 325 318 311 305 305 297 294 285 286 292 286 281 278 270 271 234 224 214 212 213 213 210 205 201 197 193 199 184 168 202 204 213 214 214 214 213 211 211 210 210 208
338 332 325 321 314 305 300 294 288 291 290 286 286 283 280 277 266 220 252 214 214 214 215 212 210 205 204 196 196 203 204 203 185 208 215 216 217 217 215 215 215 216 216
337 332 329 325 315 304 300 298 288 288 286 282 284 282 278 271 263 247 254 205 215 209 213 215 212 206 208 207 205 201 204 207 204 200 209 214 218 218 218 218 219 220 220
336 332 329 328 323 310 300 297 291 286 283 281 276 274 270 271 253 257 250 223 203 207 213 214 217 211 209 210 210 209 209 206 207 206 210 215 219 220 220 220 221 222 222
Height
1539 1538 1538 1539 1543 1543 1543 1543 1545 1545 1548 1549 1550 1552 1553 1556 1558 1559 1560 1561 1562 1563 1564 1565 1566 1567 1567 1567 1569 1569 1570 1570 1571 1571 1573 1575 1575 1576 1576 1576 1576 1576 1576
1540 1537 1535 1537 1541 1543 1542 1543 1545 1546 1547 1550 1551 1552 1554 1556 1558 1560 1561 1562 1563 1565 1566 1567 1568 1568 1568 1569 1571 1571 1572 1573 1574 1574 1576 1577 1577 1577 1577 1577 1577 1578 1578
1537 1535 1533 1535 1540 1542 1543 1543 1543 1546 1547 1549 1551 1553 1554 1556 1557 1559 1561 1562 1564 1565 1568 1569 1569 1570 1570 1571 1572 1573 1574 1575 1576 1577 1578 1578 1579 1579 1579 1579 1579 1579 1579
1536 1534 1534 1534 1535 1540 1542 1543 1542 1544 1547 1548 1550 1553 1554 1556 1557 1559 1561 1563 1564 1566 1568 1569 1570 1571 1572 1573 1574 1574 1575 1576 1577 1579 1580 1580 1580 1580 1580 1580 1580 1580 1580
1537 1535 1532 1531 1533 1537 1540 1541 1542 1543 1546 1547 1549 1551 1554 1556 1557 1559 1561 1563 1565 1566 1567 1569 1571 1572 1573 1574 1575 1576 1576 1578 1578 1579 1581 1582 1581 1580 1580 1581 1581 1581 1581
1538 1535 1530 1529 1530 1529 1536 1539 1541 1542 1544 1546 1548 1549 1552 1555 1557 1559 1560 1562 1564 1566 1567 1568 1570 1572 1573 1574 1575 1576 1576 1578 1579 1580 1581 1582 1582 1581 1581 1581 1582 1582 1582
1536 1535 1531 1527 1525 1525 1525 1536 1539 1540 1542 1544 1547 1548 1550 1553 1556 1558 1560 1562 1564 1566 1567 1568 1570 1572 1573 1574 1576 1577 1577 1578 1578 1580 1582 1582 1583 1582 1582 1582 1583 1584 1584
1534 1533 1530 1527 1524 1522 1521 1524 1534 1538 1540 1541 1544 1547 1549 1551 1554 1556 1559 1561 1563 1565 1567 1568 1570 1571 1573 1574 1576 1577 1578 1579 1580 1581 1582 1582 1584 1584 1583 1584 1584 1585 1586
1531 1531 1529 1525 1523 1519 1518 1523 1520 1534 1536 1539 1541 1544 1547 1550 1552 1555 1557 1560 1562 1564 1566 1567 1570 1572 1573 1574 1576 1577 1578 1579 1581 1582 1582 1584 1585 1586 1585 1586 1587 1586 1587
1527 1528 1526 1522 1520 1520 1517 1516 1515 1519 1532 1535 1539 1541 1545 1548 1551 1554 1556 1559 1561 1563 1565 1566 1569 1571 1572 1574 1575 1576 1578 1579 1581 1583 1583 1585 1586 1587 1587 1587 1588 1588 1588
1526 1523 1521 1519 1518 1516 1515 1511 1513 1512 1521 1533 1536 1539 1543 1546 1549 1552 1554 1557 1560 1562 1564 1566 1568 1570 1572 1573 1575 1576 1578 1579 1581 1583 1584 1586 1586 1586 1587 1588 1589 1589 1589
1522 1518 1519 1516 1515 1518 1513 1510 1508 1509 1518 1525 1532 1535 1539 1542 1545 1549 1553 1556 1559 1561 1563 1565 1567 1568 1571 1572 1574 1576 1578 1580 1581 1583 1584 1586 1587 1587 1588 1589 1589 1590 1590
1519 1516 1513 1511 1511 1509 1513 1511 1507 1514 1514 1516 1528 1532 1534 1537 1541 1545 1550 1554 1556 1559 1561 1563 1564 1567 1570 1572 1574 1575 1578 1580 1581 1582 1585 1586 1587 1588 1589 1590 1591 1592 1593
1515 1513 1510 1509 1509 1507 1507 1509 1512 1502 1512 1507 1510 1525 1529 1533 1535 1539 1544 1547 1550 1553 1557 1559 1562 1566 1568 1572 1574 1576 1578 1580 1581 1582 1585 1586 1588 1589 1590 1591 1592 1592 1593
1513 1510 1509 1505 1502 1501 1500 1498 1500 1500 1501 1503 1503 1510 1524 1528 1531 1535 1538 1540 1544 1549 1554 1557 1560 1563 1566 1570 1573 1577 1579 1581 1582 1582 1584 1586 1587 1588 1590 1591 1593 1594 1595
1512 1511 1508 1502 1501 1498 1503 1493 1497 1503 1494 1492 1501 1502 1506 1522 1525 1530 1532 1535 1538 1546 1550 1554 1557 1560 1564 1568 1572 1576 1579 1581 1583 1583 1584 1586 1588 1589 1590 1592 1593 1594 1595
1502 1501 1500 1498 1497 1492 1493 1495 1495 1496 1491 1499 1500 1498 1503 1512 1520 1523 1526 1529 1534 1541 1546 1550 1554 1558 1561 1565 1570 1574 1577 1580 1583 1584 1585 1586 1587 1589 1591 1592 1593 1594 1596
1504 1500 1494 1492 1490 1491 1486 1486 1483 1486 1489 1496 1496 1493 1502 1502 1510 1515 1519 1523 1529 1535 1542 1545 1549 1553 1558 1561 1564 1570 1575 1579 1582 1584 1585 1586 1587 1589 1591 1592 1593 1595 1596
1502 1500 1496 1493 1493 1488 1489 1495 1492 1487 1490 1494 1491 1488 1485 1491 1492 1503 1511 1516 1523 1528 1535 1540 1544 1549 1554 1559 1563 1567 1572 1576 1579 1582 1584 1585 1586 1588 1589 1591 1593 1594 1595
1500 1500 1497 1494 1495 1483 1489 1485 1475 1475 1484 1492 1483 1485 1484 1483 1496 1498 1502 1508 1515 1521 1527 1535 1539 1545 1552 1556 1561 1566 1570 1573 1577 1580 1582 1584 1586 1587 1588 1590 1591 1593 1594
1495 1493 1494 1496 1493 1486 1489 1482 1473 1481 1484 1486 1487 1492 1485 1485 1490 1488 1491 1497 1507 1512 1519 1527 1532 1538 1545 1553 1558 1564 1569 1572 1573 1576 1579 1581 1584 1585 1586 1588 1590 1592 1593
1490 1489 1486 1481 1482 1486 1485 1479 1474 1476 1477 1472 1477 1478 1481 1483 1479 1489 1481 1487 1497 1506 1512 1518 1523 1530 1540 1545 1550 1559 1566 1572 1571 1572 1575 1578 1580 1583 1585 1586 1588 1590 1592
1487 1485 1484 1484 1481 1477 1472 1473 1472 1480 1472 1469 1470 1470 1477 1482 1481 1477 1482 1479 1489 1497 1503 1509 1514 1520 1525 1536 1542 1546 1557 1559 1564 1568 1570 1573 1576 1578 1581 1584 1585 1587 1589
1485 1482 1479 1479 1477 1476 1474 1474 1474 1475 1467 1466 1463 1465 1466 1465 1470 1468 1470 1470 1474 1488 1497 1500 1507 1514 1518 1524 1534 1541 1544 1546 1555 1561 1564 1567 1570 1573 1576 1579 1581 1584 1586
1482 1478 1476 1475 1475 1474 1472 1467 1469 1465 1462 1462 1458 1455 1458 1463 1466 1464 1469 1468 1468 1473 1487 1492 1498 1504 1513 1517 1521 1528 1537 1542 1546 1549 1552 1559 1564 1566 1571 1574 1577 1579 1582
1478 1475 1472 1470 1469 1467 1467 1467 1464 1461 1458 1455 1461 1457 1459 1456 1456 1462 1462 1464 1465 1460 1473 1483 1491 1497 1503 1511 1518 1523 1528 1532 1536 1543 1548 1553 1557 1560 1565 1569 1571 1574 1578